Weather in Kempten

Germany     47˚43′27″N   10˚18′47″E
temp.,
°C
wind,
m/s
gust,
m/s
humid.,
%
clouds,
%
prec.,
mm/h
press.,
hPa
HPBL,
m
29 november, sun
sun2901:00−3˚e249386 0.0 1019114
04:00−4˚ene2499100 0.0 1020155
07:00−3˚ene2494100 0.0 1021273
10:00−3˚e2489100 0.0 1022337
13:00ene247294 0.0 1021428
16:00−2˚e248436 0.0 1022288
19:00−5˚e129823 0.0 102346
22:00−5˚e12987 0.0 102441
30 november, mon
mon3001:00−5˚e11988 0.0 102524
04:00−5˚se11974 0.0 102421
07:00−6˚nnw11962 0.0 102521
10:00−1˚sw11750 0.0 1026190
13:00+3˚nw11590 0.0 1024385
16:00−1˚w11820 0.0 102421
19:00−4˚sw22940 0.0 102523
22:00−3˚sw23930 0.0 102455
1 december, tue
tue101:00−3˚sw24890 0.0 102385
04:00−2˚sw3106667 0.0 1021241
07:00−1˚sw5139083 0.6 1018545
10:00ssw3895100 1.5 1016333
13:00+1˚wsw2798100 2.7 1015460
16:00wsw2599100 1.6 1015274
19:00wsw1199100 2.4 101764
22:00nnw1199100 0.2 101864
2 december, wed
wed201:00ne1299100 0.5 101899
04:00ne1399100 0.4 1017164
07:00−2˚ene2696100 0.6 1016370
10:00−3˚ene249340 0.0 1016231
13:00ene358650 0.1 1014559
16:00−2˚ne129791 0.0 101452
19:00−3˚ene119994 0.1 101526
22:00−3˚sse119888 0.0 101521
3 december, thu
thu301:00−5˚sw119776 0.0 101421
04:00−5˚ssw1197100 0.0 101421
07:00−4˚wsw0198100 0.1 101227
10:00−2˚nnw119198 0.0 1011189
13:00nw118398 0.0 1008451
16:00−2˚nne1192100 0.0 1006145
19:00−5˚ese1198100 0.1 100521
22:00−5˚se129756 0.0 100222